Weather History for Franklin, VA

Change the Weather History Date:

Thursday, May 2, 2013

  Actual Average (KSFQ) Record (KSFQ)
Temperature  
Mean Temperature 59 °F -  
Max Temperature 68 °F 75 °F 89 °F (1954)
Min Temperature 48 °F 51 °F 35 °F (1978)
Degree Days  
Heating Degree Days 6    
Growing Degree Days 9 (Base 50)    
Moisture  
Dew Point 54 °F    
Average Humidity 83    
Maximum Humidity 100    
Minimum Humidity 52    
Precipitation  
Precipitation 0.00 in - - ()
Sea Level Pressure  
Sea Level Pressure 30.34 in    
Wind  
Wind Speed 8 mph (NE)    
Max Wind Speed 16 mph    
Max Gust Speed 23 mph    
Visibility 9 miles    
Events      
Averages and records for this station are not official NWS values.
T = Trace of Precipitation, MM = Missing Value Source: NWS Daily Summary

Daily Weather History Graph

Daily Weather History Graph

Search for Another Location

Airport:

Trip Planner

Search our weather history database for the weather conditions in past years. The results will help you decide how hot, cold, wet, or windy it might be!

Date:

Astronomy

May. 02, 2013 Rise Set
Actual Time 6:12 AM EDT 7:57 PM EDT
Civil Twilight 5:44 AM EDT 8:25 PM EDT
Nautical Twilight 5:11 AM EDT 8:58 PM EDT
Astronomical Twilight 4:35 AM EDT 9:34 PM EDT
Moon 1:46 AM EDT (5/2) 12:55 PM EDT (5/2)
Length of Visible Light 14h 40m
Length of Day
13h 44m
Waning Gibbous, 48% of the Moon is Illuminated
May 2
Waning Gibbous
May 9
New
May 18
First Quarter
May 25
Full
May 31
Last Quarter

Hourly Weather History & Observations

Time (EDT) Temp. Dew Point Humidity Pressure Visibility Wind Dir Wind Speed Gust Speed Precip Events Conditions
12:15 AM 57.2 °F 57.2 °F 100% 30.36 in 7.0 mi NE 8.1 mph - N/A   Overcast
12:35 AM 57.2 °F 57.2 °F 100% 30.36 in 4.0 mi NE 5.8 mph - N/A   Overcast
12:55 AM 57.2 °F 57.2 °F 100% 30.36 in 3.0 mi ENE 8.1 mph - N/A   Overcast
1:15 AM 57.2 °F 57.2 °F 100% 30.35 in 4.0 mi NE 4.6 mph - N/A   Overcast
1:35 AM 57.2 °F 57.2 °F 100% 30.35 in 7.0 mi NNE 3.5 mph - N/A   Overcast
1:55 AM 55.4 °F 55.4 °F 100% 30.35 in 5.0 mi NNE 5.8 mph - N/A   Overcast
2:35 AM 55.4 °F 55.4 °F 100% 30.34 in 5.0 mi NE 6.9 mph - N/A   Overcast
2:55 AM 55.4 °F 55.4 °F 100% 30.34 in 7.0 mi NE 6.9 mph - N/A   Overcast
3:15 AM 55.4 °F 55.4 °F 100% 30.34 in 10.0 mi NE 8.1 mph - N/A   Overcast
3:35 AM 57.2 °F 57.2 °F 100% 30.34 in 10.0 mi ENE 8.1 mph - N/A   Overcast
3:55 AM 57.2 °F 57.2 °F 100% 30.34 in 7.0 mi NE 6.9 mph - N/A   Overcast
4:15 AM 55.4 °F 55.4 °F 100% 30.34 in 4.0 mi NE 6.9 mph - N/A   Overcast
4:35 AM 55.4 °F 55.4 °F 100% 30.34 in 4.0 mi NE 6.9 mph - N/A   Overcast
4:55 AM 55.4 °F 55.4 °F 100% 30.34 in 5.0 mi NE 8.1 mph - N/A   Overcast
5:15 AM 55.4 °F 55.4 °F 100% 30.34 in 10.0 mi NE 8.1 mph - N/A   Overcast
5:35 AM 55.4 °F 55.4 °F 100% 30.33 in 7.0 mi NE 5.8 mph - N/A   Overcast
5:55 AM 55.4 °F 55.4 °F 100% 30.34 in 7.0 mi NE 6.9 mph - N/A   Overcast
6:15 AM 55.4 °F 55.4 °F 100% 30.33 in 10.0 mi NE 8.1 mph - N/A   Overcast
6:35 AM 57.2 °F 57.2 °F 100% 30.34 in 10.0 mi NE 8.1 mph - N/A   Overcast
6:55 AM 57.2 °F 57.2 °F 100% 30.34 in 10.0 mi NE 9.2 mph - N/A   Overcast
7:15 AM 57.2 °F 55.4 °F 94% 30.34 in 10.0 mi NE 10.4 mph - N/A   Overcast
7:35 AM 57.2 °F 55.4 °F 94% 30.35 in 10.0 mi NE 9.2 mph - N/A   Overcast
7:55 AM 57.2 °F 55.4 °F 94% 30.35 in 10.0 mi NE 10.4 mph 16.1 mph N/A   Overcast
8:15 AM 57.2 °F 55.4 °F 94% 30.35 in 10.0 mi NE 11.5 mph - N/A   Overcast
8:35 AM 57.2 °F 55.4 °F 94% 30.36 in 10.0 mi ENE 12.7 mph - N/A   Overcast
8:55 AM 60.8 °F 55.4 °F 82% 30.36 in 10.0 mi ENE 11.5 mph - N/A   Overcast
9:15 AM 60.8 °F 55.4 °F 82% 30.36 in 10.0 mi NE 10.4 mph - N/A   Overcast
9:35 AM 60.8 °F 53.6 °F 77% 30.36 in 10.0 mi NE 10.4 mph - N/A   Overcast
9:55 AM 60.8 °F 53.6 °F 77% 30.37 in 10.0 mi East 10.4 mph - N/A   Overcast
10:15 AM 62.6 °F 53.6 °F 72% 30.37 in 10.0 mi ENE 9.2 mph - N/A   Overcast
10:35 AM 62.6 °F 53.6 °F 72% 30.38 in 10.0 mi ENE 11.5 mph 16.1 mph N/A   Overcast
10:55 AM 62.6 °F 53.6 °F 72% 30.38 in 10.0 mi NE 8.1 mph - N/A   Overcast
11:15 AM 64.4 °F 53.6 °F 68% 30.38 in 10.0 mi NE 10.4 mph 18.4 mph N/A   Overcast
11:35 AM 64.4 °F 53.6 °F 68% 30.37 in 10.0 mi NE 10.4 mph 18.4 mph N/A   Mostly Cloudy
11:55 AM 64.4 °F 51.8 °F 64% 30.37 in 10.0 mi NE 12.7 mph 19.6 mph N/A   Mostly Cloudy
12:15 PM 66.2 °F 51.8 °F 60% 30.37 in 10.0 mi NE 13.8 mph 18.4 mph N/A   Scattered Clouds
12:35 PM 66.2 °F 51.8 °F 60% 30.36 in 10.0 mi ENE 11.5 mph 17.3 mph N/A   Clear
12:55 PM 66.2 °F 51.8 °F 60% 30.35 in 10.0 mi NE 11.5 mph - N/A   Clear
1:15 PM 66.2 °F 51.8 °F 60% 30.35 in 10.0 mi NE 12.7 mph - N/A   Clear
1:35 PM 66.2 °F 51.8 °F 60% 30.35 in 10.0 mi ENE 9.2 mph 18.4 mph N/A   Clear
1:55 PM 66.2 °F 51.8 °F 60% 30.35 in 10.0 mi ENE 13.8 mph 19.6 mph N/A   Clear
2:15 PM 68.0 °F 51.8 °F 56% 30.35 in 10.0 mi ENE 12.7 mph 18.4 mph N/A   Clear
2:35 PM 68.0 °F 50.0 °F 52% 30.35 in 10.0 mi ENE 13.8 mph 19.6 mph N/A   Clear
2:55 PM 68.0 °F 51.8 °F 56% 30.34 in 10.0 mi ENE 15.0 mph 18.4 mph N/A   Clear
3:15 PM 66.2 °F 51.8 °F 60% 30.33 in 10.0 mi NE 11.5 mph 18.4 mph N/A   Clear
3:35 PM 66.2 °F 53.6 °F 64% 30.33 in 10.0 mi East 10.4 mph 18.4 mph N/A   Scattered Clouds
3:55 PM 66.2 °F 53.6 °F 64% 30.33 in 10.0 mi ENE 11.5 mph - N/A   Scattered Clouds
4:15 PM 66.2 °F 53.6 °F 64% 30.33 in 10.0 mi NE 15.0 mph - N/A   Scattered Clouds
4:35 PM 66.2 °F 53.6 °F 64% 30.33 in 10.0 mi NE 16.1 mph - N/A   Scattered Clouds
4:55 PM 66.2 °F 51.8 °F 60% 30.33 in 10.0 mi ENE 15.0 mph 23.0 mph N/A   Scattered Clouds
5:15 PM 66.2 °F 53.6 °F 64% 30.32 in 10.0 mi ENE 13.8 mph 17.3 mph N/A   Mostly Cloudy
5:35 PM 64.4 °F 51.8 °F 64% 30.32 in 10.0 mi ENE 12.7 mph 18.4 mph N/A   Mostly Cloudy
5:55 PM 64.4 °F 51.8 °F 64% 30.32 in 10.0 mi East 10.4 mph - N/A   Mostly Cloudy
6:15 PM 62.6 °F 51.8 °F 68% 30.32 in 10.0 mi East 13.8 mph 17.3 mph N/A   Scattered Clouds
6:35 PM 62.6 °F 51.8 °F 68% 30.31 in 10.0 mi ENE 13.8 mph - N/A   Clear
6:55 PM 60.8 °F 51.8 °F 72% 30.31 in 10.0 mi ENE 11.5 mph 17.3 mph N/A   Clear
7:15 PM 60.8 °F 51.8 °F 72% 30.31 in 10.0 mi ENE 10.4 mph - N/A   Clear
7:35 PM 59.0 °F 51.8 °F 77% 30.31 in 10.0 mi ENE 8.1 mph - N/A   Clear
7:55 PM 57.2 °F 51.8 °F 82% 30.31 in 10.0 mi ENE 5.8 mph - N/A   Clear
8:15 PM 57.2 °F 51.8 °F 82% 30.31 in 10.0 mi NE 5.8 mph - N/A   Clear
8:35 PM 55.4 °F 51.8 °F 88% 30.31 in 10.0 mi Calm Calm - N/A   Clear
8:55 PM 55.4 °F 51.8 °F 88% 30.31 in 10.0 mi Calm Calm - N/A   Clear
9:15 PM 53.6 °F 51.8 °F 94% 30.31 in 10.0 mi Calm Calm - N/A   Clear
9:35 PM 53.6 °F 51.8 °F 94% 30.32 in 10.0 mi Calm Calm - N/A   Clear
9:55 PM 51.8 °F 51.8 °F 100% 30.32 in 10.0 mi Calm Calm - N/A   Clear
10:15 PM 51.8 °F 51.8 °F 100% 30.32 in 10.0 mi Calm Calm - N/A   Clear
10:35 PM 51.8 °F 51.8 °F 100% 30.32 in 10.0 mi Calm Calm - N/A   Clear
10:55 PM 51.8 °F 51.8 °F 100% 30.31 in 10.0 mi Calm Calm - N/A   Clear
11:15 PM 50.0 °F 50.0 °F 100% 30.31 in 10.0 mi Calm Calm - N/A   Clear
11:35 PM 50.0 °F 50.0 °F 100% 30.31 in 10.0 mi Calm Calm - N/A   Clear
11:55 PM 48.2 °F 48.2 °F 100% 30.31 in 10.0 mi Calm Calm - N/A   Clear